This is the latest recevied weather packets stored in our database for station/object N7CEE. If no packets are shown the sender has not sent any weather packets the latest 10 day(s).
| Time | Temp. | Humidity | Pressure | Rain* | Wind** | Luminosity | Snow |
|---|---|---|---|---|---|---|---|
| 1777761335 | 20° C | 22% | 1024.5 hPa | 0 mm | - | 563 W/m² | - |
| 1777761033 | 18.89° C | 22% | 1025 hPa | 0 mm | - | 469 W/m² | - |
| 1777760730 | 20° C | 22% | 1024.9 hPa | 0 mm | - | 90 W/m² | - |
| 1777760426 | 20.56° C | 21% | 1024.9 hPa | 0 mm | - | 650 W/m² | - |
| 1777760122 | 21.11° C | 21% | 1025 hPa | 0 mm | - | 643 W/m² | - |
| 1777759819 | 21.67° C | 20% | 1025 hPa | 0 mm | - | 638 W/m² | - |
| 1777759515 | 21.67° C | 20% | 1025.3 hPa | 0 mm | - | 639 W/m² | - |
| 1777759212 | 20.56° C | 21% | 1025.2 hPa | 0 mm | - | 647 W/m² | - |
| 1777758909 | 19.44° C | 21% | 1025.2 hPa | 0 mm | - | 659 W/m² | - |
| 1777758606 | 20° C | 21% | 1025.2 hPa | 0 mm | - | 672 W/m² | - |
| 1777758303 | 20° C | 22% | 1025.1 hPa | 0 mm | - | 682 W/m² | - |
| 1777758000 | 19.44° C | 22% | 1025.6 hPa | 0 mm | - | 696 W/m² | - |
| 1777757696 | 20° C | 22% | 1025.7 hPa | 0 mm | - | 705 W/m² | - |
| 1777757395 | 20° C | 22% | 1025.7 hPa | 0 mm | - | 719 W/m² | - |
| 1777757093 | 19.44° C | 22% | 1025.8 hPa | 0 mm | - | 731 W/m² | - |
| 1777756790 | 20.56° C | 22% | 1026.1 hPa | 0 mm | - | 740 W/m² | - |
| 1777756486 | 19.44° C | 22% | 1026.1 hPa | 0 mm | - | 751 W/m² | - |
| 1777756184 | 19.44° C | 23% | 1026.1 hPa | 0 mm | - | 739 W/m² | - |
| 1777755880 | 20.56° C | 23% | 1026 hPa | 0 mm | - | 770 W/m² | - |
| 1777755577 | 19.44° C | 22% | 1026.1 hPa | 0 mm | - | 730 W/m² | - |
| 1777755273 | 20° C | 22% | 1026.3 hPa | 0 mm | - | 159 W/m² | - |
| 1777754971 | 20.56° C | 22% | 1026.3 hPa | 0 mm | - | 796 W/m² | - |
| 1777754668 | 19.44° C | 22% | 1026.5 hPa | 0 mm | - | 800 W/m² | - |
| 1777754366 | 19.44° C | 22% | 1026.5 hPa | 0 mm | - | 807 W/m² | - |
| 1777754063 | 18.33° C | 23% | 1026.5 hPa | 0 mm | - | 809 W/m² | - |
* Rain latest hour (hover to see other rain measurements)
** Current wind speed in m/s (hover to see current wind gust speed)